Home > Weather > Kallithea > Past weeks

Flag for Greece Weather for the Past 2 Weeks in Kallithea, Greece

Now
66 °F

Sunny.


Feels Like: 66 °F
Forecast: 58 / 72 °F
Wind: 8 mph from North

Location: Elefsis Airport

Current Time: May 1, 2016 at 9:12:03 AM

Latest Report: May 1, 2016 at 8:20 AM


Visibility: 10 mi

Pressure: 30.01 "Hg

Humidity: 40%

Dew Point: 41 °F

Location of KallitheaLocation

Historic Weather in Kallithea — Graph

°F

Kallithea Temperature Yesterday

Maximum temperature yesterday: 77 °F (at 2:20 PM)
Minimum temperature yesterday: 61 °F (at 6:20 AM)
Average temperature yesterday: 68 °F

High & Low Weather Summary for the Past Weeks

 TemperatureHumidityPressure
High84 °F (Apr 18, 1:50 PM)83% (Apr 23, 8:50 PM)30.27 "Hg (Apr 23, 8:50 PM)
Low50 °F (Apr 18, 6:50 AM)16% (Apr 18, 3:50 PM)29.50 "Hg (Apr 24, 6:20 PM)
Average67 °F44%29.93 "Hg
* Reported Apr 16 7:20 AM — May 1 7:20 AM, Kallithea, Weather by CustomWeather, © 2016

Note: Actual official high and low records may vary slightly from our data, if they occured in-between our weather recording intervals... More about our weather records

Advertising

Kallithea Weather History for the Previous 24 Hours

Scroll right to see more
 ConditionsComfort  
Time TempWeatherWind HumidityBarometerVisibility
7:20 AM
Sun, May 1
63 °FClear.10 mph45%29.98 "Hg10 mi
6:50 AM61 °FClear.10 mph48%29.98 "Hg10 mi
6:20 AM59 °FClear.7 mph51%29.98 "Hg10 mi
5:20 AM59 °FClear.7 mph55%29.98 "Hg10 mi
4:50 AM59 °FClear.9 mph55%29.98 "Hg10 mi
4:20 AM59 °FClear.9 mph55%29.98 "Hg10 mi
3:50 AM61 °FClear.12 mph52%29.98 "Hg10 mi
3:20 AM61 °FClear.12 mph52%29.98 "Hg10 mi
2:50 AM61 °FClear.13 mph55%29.98 "Hg10 mi
2:20 AM61 °FClear.12 mph55%29.98 "Hg10 mi
1:50 AM61 °FClear.10 mph55%30.01 "Hg10 mi
1:20 AM63 °FClear.12 mph52%29.98 "Hg10 mi
12:20 AM61 °FClear.7 mph55%30.01 "Hg10 mi
11:50 PM
Sat, Apr 30
63 °FClear.6 mph52%30.01 "Hg10 mi
11:20 PM63 °FPassing clouds.6 mph52%30.01 "HgN/A
10:50 PM64 °FPassing clouds.8 mph49%30.01 "HgN/A
10:20 PM64 °FPassing clouds.8 mph49%30.01 "HgN/A
9:50 PM66 °FPassing clouds.7 mph46%30.01 "HgN/A
9:20 PM64 °FPassing clouds.5 mph49%29.98 "HgN/A
8:50 PM68 °FPassing clouds.6 mph43%29.98 "HgN/A
8:20 PM68 °FPassing clouds.7 mph43%29.98 "HgN/A
7:20 PM72 °FPassing clouds.10 mph41%29.95 "HgN/A
6:50 PM73 °FPassing clouds.12 mph38%29.95 "HgN/A
6:20 PM75 °FScattered clouds.12 mph36%29.95 "HgN/A
5:50 PM75 °FScattered clouds.13 mph34%29.95 "HgN/A
4:50 PM75 °FScattered clouds.13 mph36%29.95 "HgN/A
4:20 PM75 °FScattered clouds.12 mph36%29.95 "HgN/A
3:50 PM75 °FScattered clouds.15 mph36%29.95 "HgN/A
3:20 PM77 °FScattered clouds.14 mph34%29.95 "HgN/A
2:50 PM77 °FScattered clouds.14 mph34%29.95 "HgN/A
2:20 PM77 °FPassing clouds.15 mph34%29.95 "HgN/A
1:50 PM75 °FPassing clouds.15 mph36%29.98 "HgN/A
1:20 PM73 °FPassing clouds.15 mph41%29.98 "HgN/A
12:50 PM73 °FPassing clouds.12 mph41%29.98 "HgN/A
12:20 PM73 °FPassing clouds.15 mph44%29.98 "HgN/A
11:50 AM73 °FPassing clouds.14 mph41%29.98 "HgN/A
11:20 AM72 °FPassing clouds.12 mph44%29.98 "HgN/A
10:50 AM70 °FPassing clouds.12 mph46%29.98 "HgN/A
10:20 AM68 °FPassing clouds.12 mph49%29.98 "HgN/A
9:50 AM68 °FPassing clouds.12 mph49%29.98 "HgN/A
9:20 AM66 °FPassing clouds.9 mph52%29.98 "HgN/A
Weather by CustomWeather, © 2016

See weather overviewHow to use our weather pages